Flag for U.S.A. Weather past 2 weeks in New Bedford, Massachusetts, U.S.A.

Now
38 °F

Light rain. Overcast.


Feels Like: 31 °F
Forecast: 33 / 43 °F
Wind: 9 mph from Northwest

Location: New Bedford Regional Airport

Current Time: Dec 18, 2014 at 7:39:07 AM

Latest Report: Dec 18, 2014 at 6:53 AM


Visibility: 10 mi

Pressure: 29.77 "Hg

Humidity: 76%

Dew point: 31 °F

Location of New BedfordLocation

Historic Weather in New Bedford — Graph

°F

New Bedford temperature yesterday

Maximum temperature yesterday: 49 °F (at 2:53 PM)
Minimum temperature yesterday: 40 °F (at 11:53 PM)
Average temperature yesterday: 45 °F

Past Weeks' High & Low Weather Summary

 TemperatureHumidityPressure
High55 °F (Dec 9, 6:53 PM)100% (Dec 3, 5:03 AM)30.70 "Hg (Dec 3, 5:03 AM)
Low25 °F (Dec 15, 6:53 AM)37% (Dec 4, 1:53 PM)29.42 "Hg (Dec 10, 2:53 PM)
Average39 °F82%30.03 "Hg
* Reported Dec 3 5:03 AM — Dec 18 5:53 AM, New Bedford, Weather by CustomWeather, © 2014

Note: Actual official high and low records may vary slightly from our data, if they occured in-between our weather recording intervals... More about our weather records

Advertising

New Bedford weather history for previous 24 hours

 ConditionsComfort  
Time TempWeatherWind HumidityBarometerVisibility
5:53 AM
Dec 18
39 °FMostly cloudy.10 mph73%29.75 "Hg10 mi
4:53 AM39 °FOvercast.13 mph73%29.74 "Hg10 mi
3:53 AM39 °FOvercast.9 mph73%29.73 "Hg10 mi
2:53 AM39 °FOvercast.13 mph73%29.74 "Hg10 mi
1:53 AM39 °FOvercast.13 mph73%29.74 "Hg10 mi
12:53 AM40 °FPassing clouds.14 mph73%29.73 "Hg10 mi
11:53 PM
Dec 17
40 °FPassing clouds.9 mph73%29.74 "Hg10 mi
10:53 PM43 °FMostly cloudy.13 mph71%29.73 "Hg10 mi
9:53 PM44 °FOvercast.10 mph73%29.74 "Hg10 mi
8:53 PM44 °FPassing clouds.8 mph76%29.74 "Hg10 mi
7:53 PM45 °FClear.12 mph76%29.74 "Hg10 mi
6:53 PM45 °FPassing clouds.9 mph80%29.74 "Hg10 mi
5:53 PM47 °FOvercast.10 mph74%29.74 "Hg10 mi
4:53 PM47 °FPassing clouds.13 mph77%29.71 "Hg10 mi
3:53 PM47 °FScattered clouds.10 mph80%29.70 "Hg10 mi
2:53 PM49 °FOvercast.9 mph84%29.69 "Hg10 mi
1:53 PM48 °FOvercast.9 mph86%29.68 "Hg10 mi
12:53 PM45 °FLow clouds.9 mph100%29.68 "Hg10 mi
11:53 AM44 °FLow clouds.9 mph100%29.70 "Hg10 mi
11:02 AM44 °FLow clouds.10 mph100%29.70 "Hg10 mi
10:53 AM44 °FLow clouds.8 mph100%29.70 "Hg10 mi
9:53 AM44 °FFog.7 mph100%29.72 "Hg2 mi
8:53 AM46 °FLow clouds.7 mph100%29.72 "Hg10 mi
7:53 AM46 °FFog.No wind100%29.71 "Hg1 mi
Weather by CustomWeather, © 2014

See weather overviewHow to use our weather pages